| time (UTC) | temp F | wind direction | speed knots | gust knots | rain 1hr in | rain 24hr in | rain mn in | humidity % | barometer mb |
| 20260505050540 | 49 | 134 | 0.9 | 1.7 | 0.00 | 0.06 | 0.05 | 86 | 1497.7 |
| 20260505041533 | 50 | 145 | 0.9 | 2.6 | 0.02 | 0.06 | 0.05 | 86 | 1497.4 |
| 20260505041032 | 50 | 144 | 1.7 | 1.7 | 0.03 | 0.06 | 0.05 | 87 | 1497.4 |
| 20260505040532 | 50 | 133 | 0.9 | 2.6 | 0.04 | 0.06 | 0.05 | 86 | 1497.1 |
| 20260505040032 | 50 | 121 | 1.7 | 2.6 | 0.04 | 0.06 | 0.05 | 86 | 1497.1 |
| 20260505035531 | 50 | 132 | 0.0 | 1.7 | 0.04 | 0.06 | 0.05 | 86 | 1497.0 |
| 20260505035031 | 50 | 157 | 0.0 | 0.9 | 0.04 | 0.06 | 0.05 | 86 | 1497.0 |
| 20260505034530 | 50 | 163 | 1.7 | 2.6 | 0.04 | 0.06 | 0.05 | 85 | 1496.9 |
| 20260505034029 | 50 | 128 | 0.9 | 2.6 | 0.05 | 0.06 | 0.05 | 84 | 1496.7 |
| 20260505033528 | 50 | 142 | 0.9 | 1.7 | 0.04 | 0.06 | 0.04 | 83 | 1496.5 |
| 20260505033028 | 50 | 168 | 0.0 | 0.9 | 0.04 | 0.05 | 0.04 | 83 | 1496.3 |
| 20260505032527 | 50 | 164 | 0.0 | 1.7 | 0.03 | 0.05 | 0.04 | 82 | 1496.0 |
| 20260505032026 | 50 | 83 | 0.9 | 2.6 | 0.03 | 0.04 | 0.03 | 82 | 1496.0 |
| 20260505031526 | 51 | 0 | 0.0 | 0.0 | 0.03 | 0.04 | 0.03 | 82 | 1495.7 |
| 20260505031026 | 51 | 308 | 0.0 | 0.9 | 0.02 | 0.03 | 0.02 | 83 | 1495.4 |
| 20260505030525 | 51 | 259 | 1.7 | 2.6 | 0.01 | 0.02 | 0.01 | 81 | 1494.9 |
| 20260505030025 | 51 | 170 | 1.7 | 2.6 | 0.01 | 0.02 | 0.01 | 80 | 1494.3 |
| 20260505025524 | 51 | 140 | 0.9 | 1.7 | 0.01 | 0.02 | 0.01 | 80 | 1493.5 |
| 20260505025023 | 52 | 166 | 3.5 | 4.3 | 0.01 | 0.02 | 0.01 | 79 | 1492.6 |
| 20260505024523 | 52 | 182 | 2.6 | 4.3 | 0.00 | 0.02 | 0.01 | 76 | 1491.7 |
| 20260505024022 | 53 | 167 | 2.6 | 6.1 | 0.00 | 0.01 | 0.00 | 72 | 1491.0 |
| 20260505023521 | 53 | 190 | 1.7 | 2.6 | 0.00 | 0.01 | 0.00 | 70 | 1490.6 |
| 20260505023020 | 53 | 0 | 0.0 | 0.0 | 0.00 | 0.01 | 0.00 | 70 | 1490.3 |
| 20260505022519 | 53 | 214 | 0.0 | 0.9 | 0.00 | 0.01 | 0.00 | 70 | 1489.9 |
| 20260505022018 | 53 | 197 | 0.0 | 1.7 | 0.00 | 0.01 | 0.00 | 69 | 1489.4 |
| 20260505021518 | 53 | 0 | 0.0 | 0.0 | 0.00 | 0.01 | 0.00 | 69 | 1489.2 |
| 20260505021018 | 53 | 245 | 0.0 | 0.9 | 0.00 | 0.01 | 0.00 | 69 | 1489.1 |
| 20260505020517 | 54 | 257 | 1.7 | 3.5 | 0.00 | 0.01 | 0.00 | 68 | 1489.2 |
| 20260505020016 | 54 | 241 | 2.6 | 3.5 | 0.00 | 0.01 | 0.00 | 68 | 1489.0 |
| 20260505015516 | 54 | 246 | 1.7 | 3.5 | 0.00 | 0.01 | 0.00 | 67 | 1488.8 |
| 20260505015016 | 54 | 252 | 3.5 | 5.2 | 0.00 | 0.01 | 0.00 | 66 | 1488.8 |
| 20260505014515 | 54 | 261 | 1.7 | 4.3 | 0.00 | 0.01 | 0.00 | 69 | 1488.8 |
| 20260505014015 | 54 | 257 | 2.6 | 4.3 | 0.00 | 0.01 | 0.00 | 70 | 1488.7 |
| 20260505013514 | 54 | 254 | 3.5 | 5.2 | 0.00 | 0.01 | 0.00 | 68 | 1488.3 |
| 20260505013014 | 54 | 239 | 3.5 | 5.2 | 0.00 | 0.01 | 0.00 | 69 | 1488.1 |
| 20260505012514 | 54 | 253 | 3.5 | 6.1 | 0.00 | 0.01 | 0.00 | 69 | 1488.1 |
| 20260505012013 | 54 | 261 | 3.5 | 5.2 | 0.00 | 0.01 | 0.00 | 70 | 1488.0 |
| 20260505011513 | 54 | 248 | 2.6 | 4.3 | 0.00 | 0.01 | 0.00 | 70 | 1487.8 |
| 20260505011012 | 54 | 244 | 2.6 | 5.2 | 0.00 | 0.01 | 0.00 | 70 | 1487.6 |
| 20260505010511 | 55 | 234 | 5.2 | 7.0 | 0.00 | 0.01 | 0.00 | 71 | 1486.3 |
| 20260505010011 | 57 | 226 | 3.5 | 6.1 | 0.00 | 0.01 | 0.00 | 68 | 1483.4 |
| 20260505005510 | 58 | 240 | 4.3 | 6.1 | 0.00 | 0.01 | 0.00 | 55 | 1481.4 |
| 20260505005010 | 58 | 256 | 1.7 | 2.6 | 0.00 | 0.01 | 0.00 | 53 | 1481.0 |
| 20260505004510 | 58 | 262 | 1.7 | 3.5 | 0.00 | 0.01 | 0.00 | 54 | 1480.5 |
| 20260505004010 | 59 | 278 | 0.9 | 2.6 | 0.00 | 0.01 | 0.00 | 54 | 1480.2 |
| 20260505003510 | 59 | 266 | 0.9 | 2.6 | 0.00 | 0.01 | 0.00 | 54 | 1480.0 |
| 20260505003009 | 59 | 294 | 1.7 | 2.6 | 0.00 | 0.01 | 0.00 | 54 | 1479.8 |
| 20260505002508 | 59 | 272 | 2.6 | 4.3 | 0.00 | 0.01 | 0.00 | 53 | 1479.6 |
| 20260505002008 | 59 | 275 | 1.7 | 2.6 | 0.00 | 0.01 | 0.00 | 53 | 1479.4 |
| 20260505001507 | 59 | 280 | 1.7 | 2.6 | 0.00 | 0.01 | 0.00 | 53 | 1479.5 |
| 20260505001006 | 59 | 288 | 1.7 | 3.5 | 0.00 | 0.01 | 0.00 | 54 | 1479.9 |
| 20260505000506 | 59 | 306 | 0.9 | 1.7 | 0.00 | 0.01 | 0.00 | 56 | 1480.1 |
| 20260505000005 | 58 | 283 | 2.6 | 4.3 | 0.00 | 0.01 | 0.01 | 55 | 1480.2 |
| 20260504235504 | 58 | 284 | 2.6 | 3.5 | 0.00 | 0.01 | 0.01 | 56 | 1480.3 |
| 20260504235002 | 58 | 286 | 1.7 | 3.5 | 0.00 | 0.01 | 0.01 | 55 | 1480.6 |
| 20260504234502 | 58 | 299 | 2.6 | 3.5 | 0.00 | 0.01 | 0.01 | 57 | 1480.8 |
| 20260504234001 | 58 | 306 | 2.6 | 4.3 | 0.00 | 0.01 | 0.01 | 56 | 1481.6 |
| 20260504233500 | 57 | 289 | 1.7 | 3.5 | 0.00 | 0.01 | 0.01 | 63 | 1482.5 |
| 20260504233000 | 57 | 279 | 2.6 | 4.3 | 0.00 | 0.01 | 0.01 | 66 | 1482.4 |
| 20260504232500 | 58 | 234 | 3.5 | 6.1 | 0.00 | 0.01 | 0.01 | 62 | 1481.9 |
| 20260504231959 | 58 | 248 | 3.5 | 4.3 | 0.00 | 0.01 | 0.01 | 61 | 1480.7 |
| 20260504231459 | 60 | 238 | 6.1 | 9.6 | 0.00 | 0.01 | 0.01 | 58 | 1478.0 |
| 20260504230958 | 62 | 189 | 7.8 | 9.6 | 0.00 | 0.01 | 0.01 | 45 | 1474.4 |
| 20260504230457 | 63 | 208 | 3.5 | 5.2 | 0.00 | 0.01 | 0.01 | 42 | 1473.3 |
| 20260504225956 | 63 | 241 | 2.6 | 3.5 | 0.00 | 0.01 | 0.01 | 40 | 1472.8 |
| 20260504225456 | 63 | 259 | 3.5 | 5.2 | 0.00 | 0.01 | 0.01 | 39 | 1472.4 |
| 20260504224956 | 63 | 228 | 3.5 | 6.1 | 0.00 | 0.01 | 0.01 | 38 | 1472.1 |
| 20260504224455 | 63 | 243 | 2.6 | 4.3 | 0.00 | 0.01 | 0.01 | 39 | 1471.6 |
| 20260504223955 | 63 | 284 | 1.7 | 2.6 | 0.00 | 0.01 | 0.01 | 39 | 1471.2 |
| 20260504223453 | 63 | 289 | 0.9 | 2.6 | 0.00 | 0.01 | 0.01 | 39 | 1471.1 |
| 20260504222953 | 63 | 258 | 0.9 | 2.6 | 0.00 | 0.01 | 0.01 | 41 | 1471.2 |
| 20260504222453 | 64 | 276 | 2.6 | 3.5 | 0.00 | 0.01 | 0.01 | 40 | 1470.9 |
| 20260504221952 | 63 | 273 | 1.7 | 3.5 | 0.01 | 0.01 | 0.01 | 41 | 1470.8 |
| 20260504221452 | 63 | 284 | 2.6 | 3.5 | 0.01 | 0.01 | 0.01 | 39 | 1470.8 |
| 20260504220951 | 63 | 311 | 1.7 | 2.6 | 0.01 | 0.01 | 0.01 | 41 | 1470.9 |
| 20260504220451 | 63 | 339 | 1.7 | 4.3 | 0.01 | 0.01 | 0.01 | 41 | 1471.2 |
| 20260504215951 | 62 | 285 | 2.6 | 4.3 | 0.01 | 0.01 | 0.01 | 43 | 1471.7 |
| 20260504215450 | 62 | 273 | 2.6 | 4.3 | 0.01 | 0.01 | 0.01 | 45 | 1472.9 |
| 20260504214950 | 61 | 295 | 1.7 | 3.5 | 0.01 | 0.01 | 0.01 | 47 | 1474.4 |
| 20260504214448 | 61 | 308 | 2.6 | 3.5 | 0.01 | 0.01 | 0.01 | 52 | 1475.0 |
| 20260504213948 | 61 | 286 | 2.6 | 4.3 | 0.01 | 0.01 | 0.01 | 50 | 1475.1 |
| 20260504213447 | 62 | 254 | 3.5 | 5.2 | 0.01 | 0.01 | 0.01 | 48 | 1474.1 |
| 20260504212947 | 63 | 241 | 4.3 | 6.1 | 0.01 | 0.01 | 0.01 | 39 | 1473.3 |
| 20260504212446 | 63 | 242 | 1.7 | 3.5 | 0.00 | 0.00 | 0.00 | 40 | 1473.5 |
| 20260504211946 | 63 | 265 | 1.7 | 4.3 | 0.00 | 0.00 | 0.00 | 41 | 1473.0 |
| 20260504211445 | 64 | 270 | 6.1 | 14.8 | 0.00 | 0.00 | 0.00 | 37 | 1471.6 |
| 20260504210944 | 64 | 239 | 4.3 | 7.0 | 0.00 | 0.00 | 0.00 | 34 | 1471.1 |
| 20260504210443 | 64 | 244 | 3.5 | 6.1 | 0.00 | 0.00 | 0.00 | 33 | 1471.1 |
| 20260504205942 | 64 | 238 | 5.2 | 7.0 | 0.00 | 0.00 | 0.00 | 35 | 1470.8 |
| 20260504205441 | 65 | 249 | 5.2 | 7.0 | 0.00 | 0.00 | 0.00 | 37 | 1469.2 |
| 20260504204939 | 65 | 292 | 4.3 | 5.2 | 0.00 | 0.00 | 0.00 | 32 | 1468.4 |
| 20260504204439 | 66 | 296 | 4.3 | 6.1 | 0.00 | 0.00 | 0.00 | 32 | 1467.2 |
| 20260504203938 | 66 | 297 | 5.2 | 7.0 | 0.00 | 0.00 | 0.00 | 31 | 1466.0 |
| 20260504203438 | 67 | 295 | 6.1 | 9.6 | 0.00 | 0.00 | 0.00 | 30 | 1464.7 |
| 20260504202938 | 67 | 306 | 6.1 | 8.7 | 0.00 | 0.00 | 0.00 | 29 | 1463.7 |
| 20260504202437 | 68 | 293 | 7.0 | 9.6 | 0.00 | 0.00 | 0.00 | 29 | 1463.0 |
| 20260504201935 | 69 | 299 | 5.2 | 7.8 | 0.00 | 0.00 | 0.00 | 30 | 1461.7 |
| 20260504201434 | 70 | 295 | 6.1 | 7.8 | 0.00 | 0.00 | 0.00 | 28 | 1459.6 |
| 20260504200934 | 72 | 280 | 4.3 | 6.1 | 0.00 | 0.00 | 0.00 | 25 | 1457.6 |
| 20260504200434 | 72 | 277 | 2.6 | 4.3 | 0.00 | 0.00 | 0.00 | 23 | 1457.0 |
| 20260504195933 | 72 | 271 | 5.2 | 7.8 | 0.00 | 0.00 | 0.00 | 23 | 1456.6 |
| 20260504195432 | 73 | 227 | 5.2 | 7.8 | 0.00 | 0.00 | 0.00 | 24 | 1456.0 |
| 20260504194932 | 73 | 244 | 6.1 | 8.7 | 0.00 | 0.00 | 0.00 | 24 | 1455.2 |
| 20260504194431 | 74 | 233 | 6.1 | 7.8 | 0.00 | 0.00 | 0.00 | 24 | 1454.7 |
| 20260504193930 | 75 | 238 | 2.6 | 5.2 | 0.00 | 0.00 | 0.00 | 24 | 1453.2 |
| 20260504193430 | 75 | 238 | 4.3 | 6.1 | 0.00 | 0.00 | 0.00 | 24 | 1452.3 |
| 20260504192929 | 75 | 212 | 5.2 | 9.6 | 0.00 | 0.00 | 0.00 | 24 | 1452.7 |
| 20260504192429 | 74 | 257 | 4.3 | 7.0 | 0.00 | 0.00 | 0.00 | 24 | 1453.5 |
| 20260504191929 | 74 | 246 | 3.5 | 6.1 | 0.00 | 0.00 | 0.00 | 23 | 1454.1 |
| 20260504191428 | 74 | 218 | 3.5 | 6.1 | 0.00 | 0.00 | 0.00 | 23 | 1454.1 |
| 20260504190928 | 74 | 192 | 3.5 | 6.1 | 0.00 | 0.00 | 0.00 | 23 | 1453.7 |
| 20260504190427 | 74 | 197 | 3.5 | 5.2 | 0.00 | 0.00 | 0.00 | 22 | 1454.1 |
| 20260504185927 | 74 | 210 | 3.5 | 6.1 | 0.00 | 0.00 | 0.00 | 22 | 1454.3 |
| 20260504185426 | 74 | 213 | 2.6 | 4.3 | 0.00 | 0.00 | 0.00 | 24 | 1454.3 |
| 20260504184926 | 74 | 197 | 4.3 | 7.0 | 0.00 | 0.00 | 0.00 | 23 | 1454.6 |
| 20260504184426 | 73 | 230 | 3.5 | 4.3 | 0.00 | 0.00 | 0.00 | 24 | 1455.7 |
| 20260504183926 | 73 | 176 | 3.5 | 6.1 | 0.00 | 0.00 | 0.00 | 24 | 1456.0 |
| 20260504183425 | 73 | 198 | 5.2 | 7.0 | 0.00 | 0.00 | 0.00 | 24 | 1455.8 |
| 20260504182924 | 73 | 186 | 4.3 | 7.0 | 0.00 | 0.00 | 0.00 | 25 | 1456.7 |
| 20260504182423 | 72 | 188 | 5.2 | 7.0 | 0.00 | 0.00 | 0.00 | 26 | 1457.7 |
| 20260504181923 | 72 | 154 | 4.3 | 7.0 | 0.00 | 0.00 | 0.00 | 26 | 1458.4 |
| 20260504181423 | 72 | 175 | 5.2 | 8.7 | 0.00 | 0.00 | 0.00 | 26 | 1458.7 |
| 20260504180922 | 71 | 169 | 5.2 | 9.6 | 0.00 | 0.00 | 0.00 | 27 | 1459.3 |
| 20260504180421 | 71 | 191 | 4.3 | 8.7 | 0.00 | 0.00 | 0.00 | 27 | 1460.1 |
| 20260504175920 | 70 | 195 | 6.1 | 8.7 | 0.00 | 0.00 | 0.00 | 26 | 1460.7 |
| 20260504175419 | 70 | 186 | 4.3 | 7.8 | 0.00 | 0.00 | 0.00 | 27 | 1460.9 |
| 20260504174916 | 70 | 178 | 6.1 | 7.8 | 0.00 | 0.00 | 0.00 | 27 | 1460.7 |
| 20260504174415 | 70 | 172 | 4.3 | 8.7 | 0.00 | 0.00 | 0.00 | 27 | 1461.1 |
| 20260504173915 | 70 | 200 | 5.2 | 7.8 | 0.00 | 0.00 | 0.00 | 26 | 1461.3 |
| 20260504173415 | 69 | 154 | 7.0 | 8.7 | 0.00 | 0.00 | 0.00 | 28 | 1462.4 |
| 20260504172915 | 69 | 164 | 7.0 | 9.6 | 0.00 | 0.00 | 0.00 | 28 | 1462.9 |
| 20260504172414 | 69 | 162 | 7.0 | 11.3 | 0.00 | 0.00 | 0.00 | 28 | 1463.2 |
| 20260504171913 | 69 | 165 | 6.1 | 8.7 | 0.00 | 0.00 | 0.00 | 28 | 1463.4 |
| 20260504171413 | 68 | 159 | 4.3 | 6.1 | 0.00 | 0.00 | 0.00 | 29 | 1464.4 |
| 20260504170912 | 68 | 168 | 4.3 | 9.6 | 0.00 | 0.00 | 0.00 | 29 | 1464.7 |
| 20260504170411 | 68 | 178 | 4.3 | 6.1 | 0.00 | 0.00 | 0.00 | 29 | 1465.1 |
| 20260504160406 | 66 | 174 | 3.5 | 4.3 | 0.00 | 0.00 | 0.00 | 30 | 1468.6 |
| 20260504150859 | 56 | 152 | 1.7 | 2.6 | 0.00 | 0.00 | 0.00 | 42 | 1483.1 |
| 20260504150359 | 56 | 164 | 1.7 | 2.6 | 0.00 | 0.00 | 0.00 | 42 | 1483.6 |
| 20260504140847 | 50 | 172 | 1.7 | 2.6 | 0.00 | 0.00 | 0.00 | 49 | 1492.2 |
| 20260504140347 | 50 | 156 | 2.6 | 3.5 | 0.00 | 0.00 | 0.00 | 50 | 1493.5 |
| 20260504130341 | 44 | 0 | 0.0 | 0.0 | 0.00 | 0.00 | 0.00 | 68 | 1503.8 |
| 20260504110325 | 41 | 211 | 0.0 | 0.9 | 0.00 | 0.00 | 0.00 | 58 | 1508.0 |
| 20260504100317 | 43 | 0 | 0.0 | 0.0 | 0.00 | 0.00 | 0.00 | 62 | 1504.4 |
| 20260504081801 | 48 | 0 | 0.0 | 0.0 | 0.00 | 0.00 | 0.00 | 51 | 1497.9 |
| 20260504081301 | 48 | 0 | 0.0 | 0.0 | 0.00 | 0.00 | 0.00 | 51 | 1497.5 |
| 20260504080801 | 48 | 211 | 0.0 | 0.0 | 0.00 | 0.00 | 0.00 | 50 | 1497.0 |
| 20260504080300 | 48 | 204 | 0.0 | 1.7 | 0.00 | 0.00 | 0.00 | 50 | 1497.1 |
| 20260504070253 | 50 | 259 | 0.9 | 1.7 | 0.00 | 0.00 | 0.00 | 45 | 1494.5 |
| 20260504060247 | 53 | 269 | 0.9 | 2.6 | 0.00 | 0.00 | 0.00 | 42 | 1490.8 |
| 20260504050739 | 57 | 277 | 0.0 | 0.9 | 0.00 | 0.00 | 0.00 | 37 | 1485.0 |